Flag for Germany Weather past 2 weeks in Emden, Lower Saxony, Germany

Now
61 °F

Passing clouds.


Feels Like: 61 °F
Forecast: 59 / 70 °F
Wind: 2 mph from Northwest

Location: Emden-Koenigspolder

Current Time: Sep 1, 2014 at 10:07:10 AM

Latest Report: Sep 1, 2014 at 9:00 AM


Visibility: 11 mi

Pressure: 30.06 "Hg

Humidity: 92%

Dew point: 58 °F

Location of EmdenLocation

Historic Weather in Emden — Graph

°F

Emden temperature yesterday

Maximum temperature yesterday: 65 °F (at 3:00 PM)
Minimum temperature yesterday: 56 °F (at 11:00 PM)
Average temperature yesterday: 60 °F

Past Weeks' High & Low Weather Summary

 TemperatureHumidityPressure
High74 °F (Aug 28, 3:00 PM)100% (Aug 28, 8:00 AM)30.06 "Hg (Aug 28, 8:00 AM)
Low43 °F (Aug 26, 5:00 AM)50% (Aug 26, 2:00 PM)29.44 "Hg (Aug 18, 10:00 AM)
Average57 °F82%29.85 "Hg
* Reported Aug 17 9:00 AM — Sep 1 9:00 AM, Emden, Weather by CustomWeather, © 2014

Note: Actual official high and low records may vary slightly from our data, if they occured in-between our weather recording intervals... More about our weather records

Advertising

Emden weather history for previous 24 hours

 ConditionsComfort  
Time TempWeatherWind HumidityBarometerVisibility
9:00 AM
Sep 1
61 °FPassing clouds.2 mph92%30.06 "Hg11 mi
8:00 AM58 °FPartly sunny.3 mph95%30.05 "Hg7 mi
7:00 AM58 °FScattered clouds.3 mph95%30.04 "Hg7 mi
6:00 AM59 °FLight freezing rain. Low clouds.5 mph94%30.05 "Hg2 mi
4:00 AM57 °FPassing clouds.3 mph96%30.02 "Hg11 mi
3:00 AM56 °FOvercast.2 mph97%30.02 "Hg7 mi
2:00 AM54 °FPassing clouds.2 mph97%30.02 "Hg6 mi
1:00 AM55 °FPassing clouds.2 mph97%30.01 "Hg6 mi
12:00 AM54 °FClear.3 mph96%30.01 "Hg8 mi
11:00 PM
Aug 31
56 °FClear.2 mph95%29.99 "Hg9 mi
10:00 PM57 °FPassing clouds.3 mph92%29.98 "Hg14 mi
9:00 PM59 °FPassing clouds.3 mph88%29.97 "Hg19 mi
8:00 PM60 °FPassing clouds.3 mph84%29.95 "Hg19 mi
7:00 PM62 °FLight rain. Overcast.5 mph82%29.94 "Hg17 mi
6:00 PM64 °FPassing clouds.7 mph73%29.93 "Hg12 mi
4:00 PM65 °FOvercast.3 mph68%29.91 "Hg14 mi
3:00 PM65 °FScattered clouds.7 mph71%29.90 "Hg11 mi
2:00 PM64 °FOvercast.3 mph71%29.91 "Hg25 mi
1:00 PM61 °FOvercast.5 mph73%29.90 "Hg19 mi
12:00 PM61 °FLight rain. Partly sunny.3 mph80%29.89 "Hg19 mi
11:00 AM64 °FOvercast.2 mph78%29.88 "Hg14 mi
10:00 AM60 °FPartly sunny.3 mph90%29.88 "Hg7 mi
Weather by CustomWeather, © 2014

See weather overviewHow to use our weather pages